GFSMA_prec_cloud_021.txt.gz
Cloud_Cover
90 49 6 14 94 100 100 100 100 100 75 100 100 65 96 100 100 97 86 100 100 100 100 66 94 100 100 100 100 98 28 46 32 100 100 100 100 99 72 74 31 58 47
83 100 92 56 88 95 100 100 100 100 100 91 100 100 100 100 100 93 97 98 100 100 100 100 100 100 100 94 100 93 97 90 100 99 100 99 86 100 100 99 85 69 100
5 40 80 49 13 49 100 100 100 76 100 100 100 100 100 100 100 90 100 100 76 100 100 100 100 100 100 87 100 100 78 87 76 100 88 100 96 100 100 100 100 100 100
32 10 5 5 15 100 100 100 100 78 100 53 100 100 100 100 100 100 100 99 85 98 100 100 100 100 100 100 100 100 100 100 83 98 99 100 100 100 99 100 100 100 100
57 40 10 36 58 100 77 64 100 100 100 100 100 45 100 100 97 100 100 100 100 100 100 100 100 100 84 100 100 100 100 100 100 100 100 100 100 100 100 100 100 90 66
15 5 91 81 97 99 56 6 6 100 12 33 79 63 100 100 100 100 100 100 100 100 95 100 100 100 100 100 100 100 100 96 100 100 100 100 100 100 100 100 100 100 100
63 17 5 56 100 45 54 84 100 13 27 69 58 47 22 50 100 100 100 100 100 100 100 75 100 100 100 100 88 96 100 49 95 100 100 100 100 100 100 100 100 100 100
64 69 58 91 12 5 5 15 97 73 85 9 5 28 47 8 49 100 100 100 100 96 100 100 99 98 100 100 100 100 100 100 82 100 100 100 100 100 100 100 100 100 99
51 100 94 100 6 3 5 7 5 67 89 98 77 51 80 26 57 100 100 100 100 100 100 100 100 100 70 100 100 100 100 100 100 92 100 100 100 100 100 100 100 100 91
99 100 100 44 5 10 19 5 92 62 100 100 100 100 33 88 60 100 100 100 100 100 100 100 100 100 100 100 100 100 100 100 100 100 100 100 100 100 100 100 100 88 100
100 100 47 11 18 1 5 27 38 99 32 99 100 100 85 77 70 51 100 100 100 100 100 100 100 100 100 100 100 100 99 100 100 100 100 100 100 100 98 93 100 100 100
14 7 24 24 52 49 23 29 95 100 100 37 75 100 100 85 51 67 100 100 100 100 100 100 100 100 100 100 100 99 72 100 100 100 100 100 100 100 100 100 100 100 100
50 5 12 29 20 19 25 98 36 78 100 48 87 100 100 100 68 70 100 100 100 100 100 100 99 100 98 100 100 99 100 100 100 100 100 100 100 100 100 100 100 100 100
26 16 95 78 100 83 62 41 20 28 33 43 97 99 100 100 100 83 100 100 100 100 100 100 97 100 100 100 96 98 100 100 100 92 100 100 100 100 100 100 100 100 100
56 32 55 97 75 16 93 19 23 30 99 71 19 69 96 100 100 92 100 100 100 100 100 100 100 100 100 100 88 100 100 100 100 100 100 100 100 100 100 100 100 100 100
71 96 57 80 80 59 44 100 88 89 50 100 100 100 100 100 91 36 88 97 100 100 100 100 100 100 100 100 100 100 100 100 100 100 100 100 100 100 100 100 100 100 100
94 100 100 94 79 41 34 40 69 99 72 100 100 100 87 47 78 100 100 100 98 100 100 100 100 100 100 100 100 100 100 100 100 100 100 100 100 100 100 100 100 100 100
80 99 100 100 100 100 100 56 92 100 100 100 100 100 100 100 71 22 74 62 100 100 100 100 100 100 100 100 100 100 100 100 100 100 100 100 100 100 100 100 100 100 100
100 100 100 100 91 100 100 100 100 93 98 100 100 96 96 90 100 99 93 97 100 100 100 100 100 100 100 100 100 100 100 100 100 100 100 100 100 100 100 100 100 100 100
57 21 100 100 100 100 100 100 100 99 93 97 100 99 100 100 100 100 100 100 100 100 100 100 100 100 100 100 100 100 100 100 100 100 100 100 100 100 100 100 100 100 100
93 19 61 100 100 91 74 100 100 100 96 81 75 69 97 65 70 98 100 100 100 100 100 100 100 100 100 100 100 100 100 100 100 100 100 100 100 100 100 100 100 100 100
100 31 38 11 23 2 1 6 100 99 100 100 99 85 58 13 5 67 51 60 100 100 100 100 100 100 100 100 100 100 100 100 100 100 100 100 100 100 100 100 100 100 100
69 73 64 55 49 0 0 20 99 100 100 100 49 31 18 0 41 22 7 38 60 91 98 100 100 100 100 100 100 100 100 100 100 100 100 100 100 100 100 100 100 100 100
100 100 71 98 27 4 2 3 20 87 100 100 100 79 49 11 3 1 3 5 4 3 5 13 52 93 99 100 100 100 100 100 100 100 100 100 100 100 100 100 100 100 100
100 100 100 100 82 0 2 5 28 68 98 88 11 1 4 3 5 5 5 5 5 5 5 5 5 6 8 56 100 100 100 100 100 100 100 100 100 100 100 100 100 100 100
98 98 100 99 14 13 30 39 10 100 72 7 5 5 4 5 5 5 100 100 42 12 5 5 5 5 5 5 5 5 5 87 96 100 100 100 100 100 100 100 100 100 100

GFSMA_prec_cloud_024.txt.gz
Cloud_Cover
30 22 5 5 62 97 100 100 100 100 100 100 100 100 99 44 76 93 86 84 100 100 100 100 100 69 96 100 76 100 94 65 5 40 99 96 82 47 99 22 42 37 7
55 77 63 59 43 100 99 100 100 100 100 100 100 100 93 74 97 95 100 100 100 100 99 100 96 20 75 50 70 100 100 98 61 73 79 94 99 96 91 50 54 30 92
100 100 100 96 96 81 100 100 100 100 100 100 100 100 100 100 100 95 96 100 100 100 100 100 100 100 58 82 100 100 82 100 96 83 93 8 92 100 100 97 99 52 100
7 5 100 99 17 8 100 100 100 100 100 100 100 100 95 99 91 40 100 100 100 92 94 100 100 100 20 100 60 100 89 100 98 48 21 60 100 100 100 59 99 100 100
10 100 8 82 80 32 100 100 100 100 100 100 100 100 100 53 74 100 100 100 100 100 100 100 100 100 100 100 94 100 100 99 70 76 100 100 98 100 83 97 88 89 99
99 58 63 23 75 39 38 73 46 100 100 100 100 99 8 41 56 100 100 100 100 100 100 100 100 100 100 100 100 100 98 98 98 97 98 100 100 99 92 100 99 91 100
100 100 97 67 26 5 5 24 62 48 100 100 100 100 100 9 5 100 78 100 100 100 100 100 100 100 100 100 100 100 100 100 66 98 100 100 100 97 100 100 93 100 98
100 19 8 4 68 16 82 5 12 84 65 90 100 49 80 5 15 36 100 68 100 100 92 100 100 100 100 100 100 100 100 100 97 100 85 100 100 100 100 100 100 99 100
14 5 5 9 6 15 6 60 15 32 80 88 100 88 54 16 85 72 95 100 100 100 100 100 100 100 100 100 100 100 100 100 99 100 100 100 100 100 100 100 100 100 100
4 3 22 47 15 41 0 5 18 43 69 67 85 98 100 100 60 16 100 68 100 100 100 100 100 100 75 97 100 100 100 100 100 87 100 100 100 100 100 100 100 100 91
5 12 4 5 2 0 0 4 4 8 18 100 86 74 78 100 100 99 88 31 100 100 100 100 100 99 90 100 100 100 100 100 100 100 100 100 100 100 100 100 100 100 88
0 0 4 5 5 5 0 4 5 13 100 100 100 100 100 100 100 97 48 67 100 100 100 100 100 93 90 100 100 100 100 100 100 100 100 100 100 100 100 100 100 100 100
3 5 5 5 1 2 5 0 12 37 12 35 99 94 97 100 100 96 81 84 92 100 100 100 100 100 100 100 100 100 100 100 100 100 100 100 74 91 100 100 100 100 100
6 5 3 5 0 4 2 3 5 43 5 18 57 8 66 99 100 65 100 34 78 100 100 100 100 100 100 100 100 100 100 100 100 100 100 100 100 100 100 100 100 100 100
8 11 0 4 2 2 7 16 93 100 12 64 68 12 97 97 100 92 96 43 39 95 100 100 100 100 100 100 100 100 100 100 100 100 100 100 100 100 100 100 100 100 100
26 14 90 43 18 4 52 73 90 46 88 100 100 92 100 100 100 100 100 96 97 100 100 100 100 100 100 100 100 100 100 100 100 100 100 100 100 100 100 100 100 100 100
76 100 100 100 86 88 7 9 43 21 4 63 100 100 100 100 100 100 100 100 100 100 100 100 100 100 100 97 93 100 100 100 100 100 100 100 100 100 100 100 100 100 100
100 100 100 92 11 74 95 4 33 94 34 75 62 100 100 58 88 82 92 23 99 100 100 100 100 100 100 100 100 100 100 100 100 100 100 100 100 100 100 100 100 100 100
59 95 99 34 84 95 100 100 100 100 100 100 100 100 83 59 57 88 78 83 23 71 99 87 100 100 100 100 100 100 100 100 100 100 100 100 100 100 100 100 100 100 100
47 0 98 82 2 2 100 100 100 100 98 93 98 94 82 65 92 94 40 68 95 98 98 100 100 100 100 100 100 100 100 100 100 100 100 100 100 100 100 100 100 100 100
99 18 8 7 4 4 96 100 100 99 64 81 95 2 2 29 32 34 57 55 84 96 100 100 100 100 100 100 100 100 100 100 100 100 100 100 100 100 100 100 100 100 100
56 5 5 0 0 0 2 96 100 100 100 100 100 76 31 0 0 0 0 6 14 34 39 70 100 100 100 100 100 100 100 100 100 100 100 100 100 100 100 100 100 100 100
100 23 20 8 0 0 0 58 100 100 100 90 100 98 66 61 36 1 0 4 5 7 24 89 52 96 97 100 100 98 100 100 100 100 100 100 100 100 100 100 100 100 100
100 100 88 2 2 0 0 0 78 100 81 18 38 43 0 0 0 0 1 5 5 5 5 6 25 37 14 19 41 22 14 11 57 100 100 100 100 100 100 100 100 100 100
100 100 96 86 5 5 4 5 7 5 6 5 3 1 4 2 3 1 5 5 5 5 5 5 5 5 5 5 5 14 35 50 83 77 71 24 99 100 100 100 100 100 100
100 100 100 5 5 31 12 5 10 38 91 92 41 5 5 5 5 18 78 18 5 5 0 4 5 5 5 3 0 3 1 0 18 2 3 4 2 3 12 90 94 100 100

GFSMA_prec_cloud_030.txt.gz
Cloud_Cover
87 69 81 92 90 96 99 93 9 86 88 67 100 100 100 100 100 100 100 100 100 100 100 100 100 100 100 100 97 97 68 80 98 31 51 5 11 5 6 12 94 12 13
100 100 53 22 10 70 99 100 10 5 22 100 100 100 100 100 82 100 100 100 100 100 99 98 100 100 100 85 100 100 96 21 100 63 28 51 66 43 53 56 40 40 82
100 100 100 100 61 100 100 100 100 100 56 68 73 99 76 38 55 63 100 100 100 100 100 100 81 100 100 100 100 100 100 54 100 98 44 90 100 100 99 59 69 6 48
100 100 100 100 100 100 100 100 100 100 100 82 18 100 94 93 12 51 71 79 100 100 100 100 99 100 100 100 100 100 100 100 84 96 84 99 48 58 84 95 87 71 9
100 99 100 100 100 68 97 100 100 100 75 100 100 42 72 99 67 41 92 100 100 100 100 100 100 100 96 100 100 100 100 100 99 68 100 90 10 72 83 72 100 87 9
100 99 100 100 100 100 100 78 88 100 100 74 100 100 93 100 100 80 59 100 100 100 100 100 100 97 65 100 100 100 100 100 100 100 100 100 100 100 100 100 100 100 100
100 100 100 100 100 100 75 18 32 93 100 100 100 100 100 91 81 55 100 62 93 100 100 100 100 100 100 100 100 100 100 100 100 100 100 100 100 100 100 100 100 100 100
96 96 100 100 97 34 5 12 69 50 48 89 100 100 100 100 100 68 100 90 99 100 94 100 100 100 100 100 100 100 100 100 100 100 100 100 100 100 100 100 100 100 99
51 89 63 46 7 5 7 5 5 14 21 60 45 100 91 90 98 69 100 41 46 100 98 100 92 100 100 100 100 100 100 100 100 100 100 100 100 100 100 100 100 100 100
14 5 5 5 5 5 6 7 3 4 6 42 31 68 100 100 100 100 95 56 79 81 69 28 96 98 100 100 100 100 100 100 100 100 100 100 100 100 100 100 100 100 100
18 5 5 5 5 4 2 3 9 13 23 12 12 32 100 100 87 99 100 99 100 92 24 100 100 72 100 100 100 100 100 100 100 100 100 100 100 100 100 100 100 100 100
5 5 0 0 0 2 0 3 5 6 7 20 5 21 85 96 100 100 100 100 100 100 82 97 90 100 100 100 100 100 100 100 100 100 100 100 100 100 100 100 100 100 100
5 5 5 11 16 6 5 8 16 15 86 33 5 15 90 98 100 100 100 100 100 100 100 100 100 100 100 100 100 100 100 100 100 100 100 100 100 100 100 100 100 100 100
5 10 2 6 17 23 18 41 6 5 5 5 5 6 61 98 100 100 100 100 100 100 96 100 100 100 100 100 100 100 100 100 100 100 100 100 100 100 100 100 100 100 100
92 100 97 19 14 30 34 29 34 24 69 29 49 5 40 100 100 100 100 100 100 100 99 100 91 100 100 100 100 100 100 100 100 100 100 100 100 100 100 100 100 100 100
67 100 85 18 6 13 21 34 45 31 24 50 40 37 33 30 89 100 100 100 100 100 100 100 100 100 100 100 100 100 100 100 100 100 100 100 100 100 100 100 100 100 100
44 100 32 9 14 7 9 12 8 21 39 30 18 74 100 95 100 100 100 100 100 100 100 100 100 100 100 100 100 100 100 100 100 100 100 100 100 100 100 100 100 100 100
5 1 0 3 6 10 10 98 97 31 32 39 32 34 100 100 100 100 100 100 100 100 100 100 100 100 100 100 100 100 100 100 100 100 100 100 100 100 100 100 100 100 100
6 1 1 1 0 0 1 14 14 7 13 26 35 35 32 82 100 94 82 100 100 100 99 100 100 100 100 100 100 100 100 100 100 100 100 100 100 100 100 100 100 100 100
5 3 2 0 0 0 0 0 0 0 0 10 17 25 98 100 98 36 53 64 98 91 100 100 100 100 100 100 100 100 100 100 100 100 100 100 100 100 100 100 100 100 100
12 5 5 5 2 0 0 0 0 0 0 0 0 0 4 18 1 16 31 25 17 37 87 100 100 100 100 100 100 100 100 100 100 71 72 100 99 100 100 100 99 93 69
35 31 28 19 5 5 6 5 3 0 0 0 0 0 0 0 0 0 2 0 2 3 82 100 100 100 100 100 100 100 100 100 100 100 38 88 21 40 34 50 11 22 22
93 48 100 80 80 85 85 61 6 5 5 4 0 0 0 0 0 0 0 0 4 1 2 67 63 85 100 100 100 100 100 100 100 89 51 100 94 90 25 0 1 4 0
100 93 100 49 84 99 94 66 22 13 6 5 6 16 5 2 3 4 29 6 50 92 75 16 13 93 97 100 63 59 61 33 26 92 76 97 100 100 81 2 0 0 0
100 100 100 100 24 21 98 84 60 70 43 13 5 5 5 5 5 5 5 59 31 5 5 5 5 5 4 5 7 12 52 43 49 53 100 14 36 13 67 12 6 0 0
100 100 100 100 61 40 100 98 36 66 100 100 100 74 6 5 5 8 5 5 5 5 5 3 4 4 5 24 19 9 44 41 87 46 20 54 38 3 0 0 17 10 0

GFSMA_prec_cloud_036.txt.gz
Cloud_Cover
100 100 84 52 59 29 12 7 5 71 100 70 32 87 71 53 98 97 92 88 68 100 100 89 100 100 100 72 98 100 100 100 48 16 91 96 52 84 66 5 33 23 7
100 100 100 100 100 100 80 5 6 19 41 82 99 100 81 65 75 100 100 100 100 9 80 100 94 93 98 97 100 100 100 100 100 67 100 100 100 66 19 5 19 63 25
100 97 92 100 95 80 70 89 99 99 91 26 6 19 99 100 99 94 88 100 100 94 100 73 72 100 100 100 100 99 100 100 100 99 92 100 100 100 99 63 17 54 99
100 100 90 22 100 50 93 91 100 100 67 36 14 5 22 7 91 100 100 100 100 100 100 100 100 97 100 100 100 100 100 100 100 100 100 97 99 100 100 98 36 34 11
98 95 86 97 100 100 100 98 100 100 100 87 71 5 5 17 95 76 99 100 96 100 100 100 95 100 100 100 100 100 100 100 100 100 100 100 100 100 100 100 97 67 87
100 89 99 100 100 100 100 100 99 49 47 86 90 100 85 88 98 83 52 100 96 99 94 100 100 100 100 100 100 100 100 100 100 100 100 100 100 100 100 100 100 99 85
76 94 93 100 74 98 32 20 39 53 53 35 5 5 39 93 100 100 95 98 100 100 100 99 100 100 100 100 100 100 100 100 100 100 100 100 100 100 100 100 100 100 100
91 100 100 100 100 9 18 30 69 100 89 40 10 20 13 74 93 100 100 100 100 100 99 100 88 100 100 100 100 100 100 100 100 100 100 100 100 100 100 100 100 100 100
77 100 100 100 87 76 15 5 50 100 100 100 44 12 29 43 76 84 100 100 100 100 100 100 99 100 89 97 100 100 100 100 100 100 100 100 100 100 100 100 100 100 100
100 100 93 100 78 11 21 14 10 62 100 90 99 98 18 43 77 95 100 100 100 100 100 100 100 77 88 100 100 100 100 100 100 100 100 100 100 100 100 100 100 100 100
99 58 95 96 24 18 19 25 38 75 98 100 98 66 97 36 63 47 100 100 100 100 100 100 100 100 100 100 100 100 100 100 100 100 100 100 100 100 100 100 100 100 100
100 100 98 34 41 45 37 14 27 60 66 86 44 29 8 19 16 41 86 100 100 100 100 100 100 100 100 100 95 88 100 100 100 100 100 99 99 99 100 100 100 100 100
100 100 99 74 100 78 31 12 16 24 42 56 47 40 5 24 52 66 82 100 100 100 100 100 100 100 100 100 100 100 100 100 100 100 100 100 100 100 100 100 100 100 100
100 100 20 38 77 100 80 46 50 69 31 17 23 34 26 6 42 58 100 100 100 100 100 100 100 100 100 100 100 100 100 100 100 100 100 100 100 100 100 100 100 100 100
97 4 3 40 32 36 42 50 91 100 100 95 57 17 13 27 24 64 100 100 100 100 100 100 100 100 100 100 100 100 100 100 100 100 100 100 100 100 100 100 100 100 100
5 5 24 12 26 13 17 24 36 35 39 76 76 88 100 79 43 43 98 100 100 100 100 100 100 100 100 100 100 100 100 100 100 100 100 100 100 100 100 100 100 100 100
44 50 11 14 22 22 16 18 25 22 29 41 42 49 69 57 68 60 74 84 96 100 100 100 100 100 100 100 100 100 100 100 100 100 100 100 100 100 100 100 100 100 100
72 7 6 6 34 6 5 15 40 53 73 46 47 80 100 97 96 76 66 98 90 68 100 100 100 100 100 100 100 100 100 100 100 100 100 100 100 100 100 100 100 100 100
18 55 49 46 64 5 5 5 22 53 54 81 91 74 79 82 95 100 84 100 100 100 100 100 100 100 100 100 100 100 100 100 100 100 98 98 99 96 100 100 100 100 100
18 30 25 17 26 42 5 5 5 4 2 10 55 54 56 97 61 50 92 100 100 99 98 100 100 100 100 100 100 100 89 100 100 100 89 86 90 83 88 100 100 100 100
100 100 100 98 86 93 81 12 5 5 5 5 5 5 14 58 81 71 39 77 76 100 100 100 100 100 100 100 100 100 100 100 100 91 89 44 72 94 95 100 100 100 68
81 98 95 96 100 36 84 100 63 51 7 5 25 24 12 81 64 71 100 100 100 97 99 100 100 100 92 100 100 100 100 100 100 48 96 100 52 100 100 100 100 9 2
93 100 89 79 32 99 100 27 58 20 99 92 61 28 8 39 9 49 58 40 94 92 68 84 94 100 100 100 100 100 100 100 98 94 100 100 100 74 42 7 5 5 5
96 100 100 100 31 68 100 100 100 100 100 100 100 100 96 83 100 19 10 20 33 77 90 90 86 66 94 93 100 96 98 99 92 100 100 100 100 84 57 19 3 5 5
86 65 100 75 93 92 91 100 100 100 100 100 100 100 100 100 100 100 80 8 5 9 22 11 27 58 28 20 6 13 58 45 89 99 100 98 90 11 83 1 0 0 0
100 100 100 100 100 100 88 91 100 100 100 100 100 100 100 100 100 100 100 95 66 42 7 5 5 5 5 5 2 1 0 0 8 82 60 46 26 0 0 0 0 0 0